THORAD DELTA 1 R/B, 7532

Orbit data source: Space-Track

THORAD DELTA 1 R/B, 7532 is space debris in SSO originally from a launch on Fri, 15 Nov 1974 UTC launched from the Air Force Western Test Range (AFWTR). Debris objects in space refer to the collection of defunct objects orbiting the Earth. Examples of debris include non-operational satellites, rocket bodies, and fragments generated from explosions, collisions, or faulty payload assembly.

Loading next visibility...
Identifier
7532, 1974-089D
Orbit
SSO
Country
Flag of USUS
Related business
Manufacturer
MDAC-HB
Mission
Spacecraft
Bus & Motor
DELTA/TR-201, Unknown motor
Mass
845 kg wet, 845 kg dry
Launch date (UTC)
1974-11-15 (52 years ago)
Launch vehicle
Unknown
Launch site
Air Force Western Test Range (AFWTR)
Object type
Payload
Rocket body
Debris
Shape & HBR
CYL + SKIRT + NOZZLE, 3.0 m
Radar Cross Section
Medium (>0.1 m² and <1 m²)

Expand to show TLE details & history
Last TLE update: 10 hours ago

TLE from 10 hours ago
0 THORAD DELTA 1 R/B
1 07532U 74089D   26237.40853201 -.00000025  00000-0  12890-3 0  9999
2 07532 101.7027 197.2681 0067100  63.5313  87.5775 12.39929649343605
Epoch: 2026-08-25T09:48Z
TLE epoch observation values (Epoch: 2026-08-25T09:48:17.165Z)
Latitude
27.52724°
Longitude
-97.31268°
Altitude
1,508.089 km
Speed
7.114 km/s
True Right ascension
01h 33m 44s
True Declination
27° 23' 60"
Sunlit
Object was in daylight at epoch
Visualization orbit readout
Latitude
Unknown
Longitude
Unknown
Altitude
Unknown
Speed
Unknown
Apparent Right ascension
Unknown
Apparent Declination
Unknown
Sunlit
N/A
Visualization observer readout
Local Sidereal Time
11:30:48
Azimuth
Unknown
Elevation
Unknown
Doppler factor
Unknown
Orbital elements
Apogee altitude
1,557.351 km
Perigee altitude
1,451.566 km
Semi-major axis
7,882.596 km
Eccentricity
0.00671
Inclination
101.7027°
RAAN
197.2681°
Arg. of periapsis
63.5313°
True anomaly
88.34597°
Mean anomaly
87.5775°
Eccentric anomaly
87.96171°
Mean motion
3.10127 °/min
Orbital period
116.08 mins
BSTAR
0.0001289
Loading maneuver chart data...
Computing Atmospheric mass density...
Loading historical data...
Loading historical data...
Loading historical data...
Loading historical data...
Loading historical data...
Loading historical data...
Loading historical data...

Documentation

Showing up to 5 results
|